Location: Bohdal�n
(49.3081°N, 15.0159°E)
Time: 10:30:46
(UTC+00:00)

Daily predictions for brighter satellites

Satellite Brightness Start Highest point End
(mag) Time Altitude Azimuth Time Altitude Azimuth Time Altitude Azimuth
USA 229 DEB 4.0 15:23:02 10° NW 15:30:13 63° NE 15:37:52 10° ESE
USA 229 4.0 15:23:08 10° NW 15:30:18 63° NE 15:37:57 10° ESE
Cosmos 1937 Rocket 4.2 15:28:54 10° N 15:33:40 32° NE 15:38:24 10° ESE
Cosmos 1939 Rocket 3.6 15:30:23 10° SE 15:34:06 34° ENE 15:37:48 10° N
ATLAS 2AS CENTAUR R/B 3.9 15:31:01 10° W 15:38:06 36° NNW 15:44:55 10° NE
Cosmos 2082 Rocket 3.9 15:35:59 10° SE 15:38:47 14° E 15:41:36 10° ENE
USA 307 3.3 15:36:34 10° W 15:40:48 55° NNW 15:45:01 10° ENE
Cosmos 990 Rocket 4.0 15:37:27 10° NNW 15:42:37 60° ENE 15:47:43 10° SE
NOAA 6 4.3 15:38:04 10° SE 15:42:56 45° ENE 15:47:48 10° N
SeaSat 1 3.8 15:41:32 10° NNE 15:45:58 34° NW 15:50:23 10° WSW
Cosmos 1408 Rocket 3.5 15:42:10 10° N 15:46:32 77° ENE 15:50:55 10° SSE
CORIOLIS 4.5 15:41:33 10° SE 15:46:38 45° ENE 15:51:48 10° N
NOSS 2-1 (C) 4.0 15:43:43 10° WSW 15:46:45 36° NW 15:49:57 10° NNE
SL-16 R/B 4.4 15:48:32 10° NW 15:50:33 12° NNW 15:52:33 10° N
Iridium 2 4.3 15:48:39 10° NNW 15:52:22 60° W 15:56:04 10° S
Meteor PRIRODA 3.5 15:49:21 10° SSE 15:53:00 84° ENE 15:56:39 10° NNW
NOSS 3-1 (A) 4.1 15:46:28 10° NW 15:53:50 83° NE 16:02:31 10° SE
Cosmos 1602 4.5 15:50:31 10° N 15:53:59 31° ENE 15:57:26 10° SE
USA 234 3.3 15:47:27 10° ESE 15:54:01 90° NNE 16:00:35 10° WNW
Okean O Rocket 3.0 15:51:03 10° E 15:54:01 18° ENE 15:57:00 10° NNE
Cosmos 1743 Rocket 3.7 15:49:56 10° N 15:54:10 51° ENE 15:58:23 10° SSE
NOSS 3-1 (C) 4.5 15:47:12 10° NW 15:54:34 71° SW 16:03:13 10° SSE
USA 276 3.3 15:52:08 10° W 15:55:07 42° SSW 15:58:05 10° SE
ATLAS CENTAUR R/B 3.0 15:51:31 10° W 15:55:15 29° NW 15:59:15 10° NNE
COSMOS 2406 4.1 15:50:48 10° SSE 15:55:46 31° ESE 16:00:43 10° NE
NOSS 2-1 (D) 4.3 15:53:15 10° WSW 15:56:11 31° NW 15:59:20 10° NNE
COSMOS 2455 4.0 15:51:43 10° SSE 15:56:20 23° ESE 16:00:45 11° ENE
NOAA 12 4.1 15:51:41 10° SSE 15:57:01 84° ENE 16:02:23 10° NNW
NOSS 2-2 (D) 4.4 15:55:52 10° NW 16:00:32 48° NE 16:06:55 10° ESE
Cosmos 1782 4.0 15:57:42 10° SE 16:00:47 22° E 16:03:54 10° NE
NOSS 2-2 (E) 4.4 15:56:14 10° NW 16:01:07 56° NE 16:07:56 10° ESE
Cosmos 1833 Rocket 3.1 15:57:15 10° S 16:02:31 43° ESE 16:07:49 10° NE
USA 308 3.4 15:59:09 10° W 16:03:18 48° N 16:06:49 14° ENE
ARGOS 4.0 15:59:18 10° ESE 16:03:43 26° ENE 16:08:08 10° N
Spot 1 4.3 15:59:58 10° NNE 16:04:39 86° ESE 16:09:34 10° SSW
Cosmos 1340 Rocket 2.9 16:05:51 10° NNW 16:09:57 85° W 16:14:01 10° S
CZ-4C R/B 4.4 16:06:28 10° N 16:10:13 44° WNW 16:13:46 10° SW
SJ 16-02 3.9 16:06:45 10° NW 16:10:22 25° W 16:13:58 10° SSW
Cosmos 1464 Rocket 4.3 16:04:01 10° SSW 16:10:24 78° W 16:16:50 10° N
PAYLOAD B 4.4 16:07:30 10° SE 16:12:54 51° ENE 16:18:19 10° N
Radarsat 4.5 16:09:09 10° SSE 16:14:19 71° ENE 16:19:31 10° N
ISS -3.8 16:11:09 10° WNW 16:14:33 71° NNE 16:17:10 16° E
Cosmos 1606 3.8 16:13:31 10° SSW 16:17:07 44° WNW 16:20:47 10° N
CZ-2D R/B 3.5 16:13:30 10° SE 16:17:09 43° ENE 16:20:48 10° N
Nadezhda 4 Rocket 4.2 16:11:16 10° NNW 16:17:36 78° W 16:23:55 10° S
Lacrosse 5 rocket 2.2 16:15:17 10° NW 16:18:45 31° NNE 16:20:54 19° ENE
CZ-4B R/B 3.5 16:15:07 10° SE 16:20:09 41° ENE 16:25:08 10° N
Cosmos 2360 4.2 16:15:01 10° NNW 16:20:49 80° ENE 16:26:33 10° SSE
Meteor 1-20 Rocket 4.3 16:16:06 10° NNW 16:21:58 87° ENE 16:27:50 10° SSE
CZ-2C R/B 3.4 16:18:08 10° NE 16:22:37 28° E 16:27:02 10° SSE
Cosmos 1500 Rocket 3.7 16:18:38 10° NNW 16:23:06 78° W 16:27:30 10° S
Cosmos 540 Rocket 3.8 16:19:28 10° S 16:24:19 45° ESE 16:28:34 13° NE
CZ-4C R/B 3.0 16:17:36 10° NW 16:24:19 54° NE 16:32:20 10° ESE
Cosmos 1818 4.3 16:20:01 10° NNW 16:24:58 33° NE 16:28:21 18° E
GEOS 3 Rocket 4.2 16:21:01 13° E 16:25:09 36° NE 16:29:52 10° NNW
CZ-4B R/B 4.2 16:23:31 10° S 16:27:24 43° W 16:31:08 10° NNW
Cosmos 1500 3.3 16:25:04 10° N 16:28:43 47° ENE 16:32:19 10° SSE
SMAP 3.3 16:24:24 10° S 16:29:02 76° WSW 16:33:43 10° NNW
USA 305 3.5 16:26:34 10° WNW 16:30:38 44° N 16:32:56 23° ENE
Cosmos 44 Rocket 4.2 16:26:25 10° NNW 16:30:50 30° NE 16:33:01 21° ENE
CZ-2C R/B 4.2 16:26:35 10° S 16:31:17 44° W 16:35:52 10° NNW
MOS 1-B 4.3 16:26:13 10° SSE 16:31:56 67° ENE 16:37:41 10° NNW
Cosmos 1092 Rocket 4.0 16:26:00 10° N 16:32:24 84° E 16:38:45 10° S
Cosmos 468 Rocket 3.9 16:28:51 10° SSW 16:34:00 86° ESE 16:39:15 10° NNE
Cosmos 1898 Rocket 3.8 16:29:07 10° NNW 16:34:23 73° WSW 16:39:33 10° SSE
Cosmos 1805 Rocket 3.4 16:30:19 10° N 16:34:41 84° E 16:39:01 10° S
Sich 1 2.9 16:31:04 10° N 16:35:21 68° ENE 16:39:39 10° SSE
Cosmos 1933 3.2 16:33:02 10° S 16:37:04 80° E 16:41:08 10° NNE
Cosmos 1428 Rocket 4.4 16:30:58 10° N 16:37:09 81° E 16:43:18 10° SSE
Cosmos 2221 4.1 16:36:06 10° SW 16:40:02 36° WNW 16:44:03 10° N
Cosmos 2360 Rocket 3.7 16:36:31 10° N 16:40:04 16° NNE 16:40:27 16° NE
PSLV R/B 3.6 16:38:40 10° SSE 16:42:21 84° WSW 16:46:07 10° NNW
deb Chang Zheng 4 3.5 16:47:48 10° SSE 16:52:03 63° ENE 16:56:20 10° N
H-2A R/B 2.0 16:49:49 10° SSE 16:55:00 86° WSW 17:00:06 10° NNW
Meteor 1-14 Rocket 4.2 16:50:48 10° N 16:56:36 68° ENE 17:02:29 10° SSE
Meteor 2-16 Rocket 4.4 16:50:38 10° N 16:56:44 65° ENE 17:02:48 10° SSE
NOSS 2-2 (C) 4.3 16:52:57 10° NW 16:58:01 85° SW 17:05:10 10° SE
Cosmos 1666 2.6 16:54:43 10° N 16:58:24 56° ENE 17:02:03 10° SSE
ERBS 3.8 16:56:45 10° WNW 16:59:24 23° NNW 16:59:45 23° N
Cosmos 2322 Rocket 3.1 16:55:01 10° NNW 16:59:50 27° NE 17:00:05 27° NE
YAOGAN 3 4.5 16:56:28 10° SSE 17:00:46 65° ENE 17:05:06 10° N
USA 267 3.4 16:58:13 24° NE 17:02:23 70° NNW 17:08:53 10° WSW
Cosmos 2279 Rocket 3.9 16:56:36 10° S 17:02:41 61° E 17:08:48 10° NNE
USA 306 3.4 16:58:45 10° WNW 17:02:50 44° N 17:03:44 38° NE
Cosmos 1697 Rocket 3.7 16:57:32 10° NW 17:02:56 49° WSW 17:08:18 10° S
SJ-11-01 4.2 16:58:37 10° SSE 17:03:20 71° ENE 17:08:05 10° N
Cosmos 2266 Rocket 4.3 16:59:18 10° N 17:05:22 44° ENE 17:11:26 10° SE
Cosmos 2369 4.0 17:00:42 10° NNW 17:06:24 68° WSW 17:12:04 10° SSE
Cosmos 1980 Rocket 2.2 17:01:15 10° NNW 17:06:58 83° WSW 17:12:36 10° SSE
COSMO-SKYMED 1 2.5 17:05:08 30° NNE 17:07:11 64° ESE 17:11:29 10° S
MOS 1-B Rocket 3.9 17:01:28 10° NNE 17:07:18 81° ESE 17:13:53 10° SSW
Meteor 1-5 Rocket 4.2 17:02:47 10° N 17:08:49 76° ENE 17:14:44 10° SSE
Cosmos 1763 Rocket 4.3 17:04:04 10° SW 17:08:59 49° WNW 17:13:31 12° NNE
SL-24 R/B - RUBIN 2 3.8 17:07:33 10° NW 17:12:06 66° SW 17:15:48 14° SSE
Cosmos 841 Rocket 3.4 17:09:09 10° SSW 17:14:19 90° ESE 17:17:16 26° NNE
Cosmos 1812 2.5 17:11:55 10° S 17:15:45 83° E 17:16:31 56° NNE
Helios 1B 4.4 17:14:16 35° NNE 17:16:02 76° ESE 17:20:21 10° S
SL-16 R/B 2.5 17:11:41 10° NNW 17:17:04 41° NE 17:17:26 41° ENE
Cosmos 1125 Rocket 3.9 17:12:22 10° NNW 17:17:07 42° NE 17:17:07 42° NE
Cosmos 1634 Rocket 4.3 17:12:01 10° SSW 17:18:19 72° W 17:24:41 10° N
Cosmos 1633 Rocket 2.9 17:14:15 10° N 17:18:39 86° E 17:23:02 10° S
YAOGAN 1 3.7 17:22:20 29° N 17:22:20 29° N 17:24:38 10° N
USA 307 3.4 17:17:04 10° WNW 17:21:12 45° N 17:21:20 45° NNE
Cosmos 2082 Rocket 2.1 17:16:16 10° SSW 17:21:57 81° ESE 17:24:27 35° NE
Cosmos 2333 Rocket 3.9 17:21:33 10° N 17:24:10 17° NNE 17:24:10 17° NNE
Okean O Rocket 1.9 17:25:28 10° S 17:29:53 67° WSW 17:34:22 10° NNW
Cosmos 2278 3.8 17:25:11 10° NNW 17:30:55 76° WSW 17:36:35 10° SSE
ATLAS 2AS CENTAUR R/B 4.0 17:24:58 10° NW 17:31:15 27° N 17:33:27 23° NNE
ATLAS CENTAUR R/B 3.9 17:33:25 10° NW 17:35:36 13° N 17:36:14 13° N
Cosmos 1655 Rocket 3.9 17:30:14 10° N 17:36:40 74° E 17:43:01 10° SSE
Cosmos 1151 Rocket 3.2 17:32:24 10° SSW 17:36:42 68° WNW 17:38:08 40° N
Cosmos 1782 4.3 17:33:11 10° SW 17:36:52 35° WNW 17:39:44 15° NNW
COSMOS 2406 3.9 17:34:14 10° SW 17:39:49 52° NW 17:43:05 24° N
COSMOS 2455 2.9 17:35:40 10° SW 17:41:41 75° NW 17:43:55 41° NNE
Meteor 2-15 4.3 17:36:34 10° S 17:42:38 74° E 17:45:42 31° NNE
ARGOS 3.7 17:38:20 10° S 17:43:39 57° W 17:49:00 10° NNW
USA 308 3.8 17:39:34 10° WNW 17:42:51 42° NNW 17:42:51 42° NNW
Cosmos 1833 Rocket 3.9 17:41:17 10° WSW 17:46:31 38° NW 17:49:48 21° N
Cosmos 2180 Rocket 4.5 17:42:45 10° S 17:49:07 83° W 17:55:27 10° N
Meteor 2-6 Rocket 4.2 17:45:08 10° SSW 17:50:55 82° WNW 17:53:25 35° N
Cosmos 1328 Rocket 3.8 17:46:37 10° SSW 17:50:52 68° W 17:50:52 68° W
ISS -1.7 17:48:06 10° W 17:50:10 27° WSW 17:50:10 27° WSW
Cosmos 2219 Rocket 4.1 17:50:39 10° N 17:52:22 16° N 17:52:22 16° N
CZ-4 R/B 4.0 17:59:49 12° NNW 17:59:49 12° NNW 18:00:05 10° NNW
Lacrosse 5 rocket 2.7 17:54:15 10° NW 17:56:30 33° NW 17:56:30 33° NW
Landsat 5 4.5 18:00:26 44° WSW 18:00:26 44° WSW 18:03:31 10° SSW
Cosmos 2298 Rocket 4.0 17:55:21 10° NNW 18:00:27 79° WNW 18:00:27 79° WNW
Cosmos 1570 Rocket 4.1 17:56:33 10° SSW 18:01:47 70° WNW 18:02:05 68° NW
GEOS 3 Rocket 3.9 18:02:08 55° S 18:02:59 64° SW 18:08:10 10° NW
CZ-2C R/B 3.5 17:59:22 17° N 18:03:06 46° WNW 18:08:01 10° SW
ATLAS CENTAUR R/B 3.0 17:56:50 10° WSW 18:03:22 47° NW 18:03:22 47° NW
Meteor 1-11 Rocket 3.7 18:02:26 10° NNW 18:07:51 79° WNW 18:07:51 79° WNW
Cosmos 1818 3.8 18:03:31 10° NW 18:08:58 66° SW 18:09:03 66° SW
Meteor 1-10 Rocket 4.2 18:03:12 10° SSW 18:08:59 81° WNW 18:09:02 80° WNW
Cosmos 44 Rocket 4.0 18:07:50 10° NW 18:11:47 50° WNW 18:11:47 50° WNW
CZ-4C R/B 3.6 18:06:07 10° NW 18:13:10 54° WSW 18:20:10 15° SSE
Cosmos 2360 Rocket 3.7 18:19:41 10° NNW 18:22:14 27° NNW 18:22:14 27° NNW
Cosmos 2322 Rocket 3.5 18:38:44 10° NNW 18:41:55 34° NW 18:41:55 34° NW
USA 267 3.9 18:45:34 45° NNW 18:45:34 45° NNW 18:51:07 10° WNW
SL-16 R/B 3.8 18:55:55 10° NW 18:59:20 31° WNW 18:59:20 31° WNW
Cosmos 2082 Rocket 4.1 19:02:08 10° W 19:06:21 24° NW 19:06:21 24° NW
ATLAS 2AS CENTAUR R/B 4.4 19:17:17 10° NW 19:20:53 27° NNW 19:20:53 27° NNW
